Regional Weather Roundup
Issued by NWS

Home | Current Version | Previous Version | Text Only | Print | Product List | Glossary On
Versions: 1 2 3 4 5 6 7 8 9 10 11 12 13 14 15 16 17 18 19 20 21 22 23 24 25 26 27 28 29 30 31 32 33 34 35 36 37 38 39 40 41 42 43 44 45 46 47 48 49 50
000
ASPQ40 PGUM 280810
RWRPQ
WEATHER ROUNDUP FOR THE MARIANAS AND MICRONESIA
NATIONAL WEATHER SERVICE TIYAN GU
600 PM CHST FRI AUG 28 2015

GUZ001>004-280900-
MARIANA ISLANDS-

CITY           SKY/WX    TMP DP  RH WIND       PRES   REMARKS
GUAM AIRPORT   PTCLDY    84  73  70 W8        29.78R HX  91
ANDERSEN AFB   CLEAR     84  73  70 NW7       29.78S HX  91
ROTA AIRPORT   PTCLDY    82  75  78 NW8       29.78R
TINIAN AP      PTCLDY    84  73  70 W6        29.74R HX  91
SAIPAN AP      PTCLDY    82  75  78 W6        29.75R

$$

PMZ161-280900-
REPUBLIC OF PALAU-

CITY           SKY/WX    TMP DP  RH WIND       PRES   REMARKS
KOROR AP       PTSUNNY   86  75  70 W8        29.76S HX  95
KOROR WSO      MOSUNNY   86  75  70 W7        29.78S HX  95

$$

PMZ171>174-280900-
FEDERATED STATES OF MICRONESIA-

CITY           SKY/WX    TMP DP  RH WIND       PRES   REMARKS
YAP AIRPORT    PTSUNNY   84  77  79 W12       29.76R HX  94
CHUUK AP       CLOUDY    82  77  83 SW10      29.78R HX  91
POHNPEI AP     CLOUDY    77  75  94 W12       29.77R
POHNPEI WSO    CLOUDY    77  77 100 W6        29.83R
KOSRAE AP      CLOUDY    82  77  83 SW16      29.81R HX  91

$$

PMZ181-280900-
REPUBLIC OF THE MARSHALL ISLANDS-

CITY           SKY/WX    TMP DP  RH WIND       PRES   REMARKS
KWAJALEIN AP   CLEAR     82  73  74 W3        29.80R
MAJURO AP      PTCLDY    82  77  83 VRB5      29.79  HX  91
MAJURO WSO     MOCLDY    84  77  79 SW8       29.80R HX  94

$$




USA.gov is the U.S. government's official web portal to all federal, state and local government web resources and services.